Regional Weather Roundup
Issued by NWS Bismarck, ND

Home | Current Version | Previous Version | Text Only | Print | Product List | Glossary On
Versions: 1 2 3 4 5 6 7 8 9 10 11 12 13 14 15 16 17 18 19 20 21 22 23 24 25 26 27 28 29 30 31 32 33 34 35 36 37 38 39 40 41 42 43 44 45 46 47 48 49 50
000
ASUS43 KBIS 280010
RWRBIS

NWR BROADCAST TEXT
NATIONAL WEATHER SERVICE BISMARCK ND
700 PM CDT WED MAY 27 2015

NOTE: "FAIR" INDICATES FEW OR NO CLOUDS BELOW 12,000 FEET WITH NO
SIGNIFICANT WEATHER AND/OR OBSTRUCTIONS TO VISIBILITY.


CITY           SKY/WX    TMP DP  RH WIND       PRES   REMARKS
WILLISTON      CLOUDY    62  54  74 S8        29.91F
MINOT          CLOUDY    73  49  42 E14       29.90F
MINOT AFB      CLOUDY    74  51  44 E13       29.89F
BISMARCK       PTSUNNY   77  48  35 S12       29.90F
DICKINSON      LGT RAIN  57  55  93 NE14      29.91S
GARRISON         N/A     76  45  33 SE7       29.88F
HETTINGER ARPT TSTM      58  53  84 NW14G24   29.95R VSB 3/4
JAMESTOWN      CLOUDY    75  53  46 NE8       29.93S
BEACH          CLOUDY    59  59 100 E9        29.91R
CARRINGTON     FAIR      66  59  77 NE14      29.96S
CROSBY         FAIR      61  59  94 S9        29.94F
HARVEY         FAIR      70  50  49 E20       29.93S
HAZEN          FAIR      73  48  40 S15       29.90R
LINTON         FAIR      75  50  41 S13       29.92R
MANDAN         FAIR      73  50  43 SE9       29.92S
OAKES            N/A     79  55  44 S14       29.93S
STANLEY        MOCLDY    64  54  68 N13       29.93F
WATFORD CITY   FAIR      57  57 100 E9        29.89F
$$

CITY           SKY/WX    TMP DP  RH WIND       PRES   REMARKS
GRAND FORKS    PTSUNNY   76  49  38 N3        29.95S
GRAND FORKS AF MOSUNNY   74  50  41 N2        29.97S
DEVILS LAKE    CLOUDY    72  50  46 S10       29.98R
FARGO          MOSUNNY   80  54  40 NE3       29.94S
CANDO          MOCLDY    73  46  38 SE12      29.98R
CAVALIER       FAIR      70  41  35 N6        29.98S
GRAFTON        FAIR      73  48  40 N6        29.98R
LANGDON        FAIR      70  46  43 E8        30.00S
ROLLA          FAIR      70  45  40 E9G16     29.99S
WALHALLA         N/A     70  45  40 MISG      29.98F
$$

CITY           SKY/WX    TMP DP  RH WIND       PRES   REMARKS
ABERDEEN       MOSUNNY   79  49  34 S10       29.93S
MOBRIDGE       CLOUDY    74  50  42 S12       29.91R
BUFFALO          N/A     58  55  90 N6        29.87F
RAPID CITY     PTSUNNY   70  55  59 S8        29.90F
GLASGOW        PTSUNNY   69  53  56 S7        29.88R
SIDNEY         CLOUDY    66  55  68 NE5       29.90S
WOLF POINT     PTSUNNY   70  53  54 CALM      29.88S
GLENDIVE       CLOUDY    64  55  72 E8        29.91F
MILES CITY     PTSUNNY   67  54  63 SE5       29.88F
BAKER          CLOUDY    61  54  77 E13       29.93R
$$

CITY           SKY/WX    TMP DP  RH WIND       PRES   REMARKS
BILLINGS       PTSUNNY   65  46  50 NE3       29.95R
GREAT FALLS    MOSUNNY   64  47  53 NW6       29.96F
REGINA         PTSUNNY   72  48  43 E12G17    29.92F
ESTEVAN        LGT RAIN  63  54  72 W7        29.95R
$$




USA.gov is the U.S. government's official web portal to all federal, state and local government web resources and services.